[[{"header":{"parameterUnit":"m.s-1","parameterCategory":1,"la1":30.2991,"la2":30.254,"lo1":-89.0895,"lo2":-89.0444,"dy":0.0017,"dx":0.0017,"nx":28,"ny":28,"refTime":"2025-08-19T09:00:00:Z","depth":0,"parameterNumber":2,"parameterNumberName":"U-component_of_WINDS"},"data":[0,0,0,0,0,0,0,0,0,0,0,0,0,0,0,0,0,0,0,0,0,0,0,0,0,0,0,0,0,0,0,0,0,0,0,0,0,0,0,0,0,0,0,0,0,0,0,0,0,0,0,0,0,0,0,0,0,0,-2.4065,-2.4065,0,-2.4093,-2.4094,-2.4094,-2.4065,-2.4064,-2.4063,-2.4062,-2.4089,-2.409,-2.4092,0,0,0,0,0,0,0,0,0,0,0,0,0,-2.3985,-2.3987,-2.4065,-2.4065,-2.4066,-2.4093,-2.4094,-2.4094,-2.4065,-2.4064,-2.4062,-2.4061,-2.4088,-2.409,-2.4092,0,0,0,0,0,0,0,0,0,0,0,0,0,-2.4017,-2.3987,-2.4065,-2.4055,-2.4054,-2.4093,-2.4094,-2.4094,-2.4065,-2.4064,-2.4062,-2.4061,-2.4087,-2.409,-2.4093,-2.4143,0,0,-2.4101,-2.4102,0,0,0,0,0,0,0,0,-2.4015,-2.402,-2.4056,-2.4056,-2.4055,-2.4074,-2.4075,-2.411,-2.4066,-2.4061,-2.4062,-2.406,-2.4085,-2.4088,-2.4097,-2.4144,-2.4145,-2.4101,-2.4103,-2.4104,-2.4104,0,0,0,0,0,0,0,-2.4013,-2.4019,-2.4076,-2.4056,-2.4056,-2.4048,-2.4051,-2.4082,-2.4082,-2.4061,-2.4059,-2.4063,-2.4084,-2.4094,-2.4097,-2.4145,-2.4101,-2.4103,-2.4105,-2.4106,-2.4235,-2.4237,0,0,0,0,0,0,-2.4012,-2.4017,-2.4075,-2.4077,-2.4031,-2.4051,-2.4054,-2.4069,-2.4082,-2.4082,-2.4065,-2.4062,-2.4091,-2.4094,-2.4098,-2.4157,-2.4104,-2.4106,-2.4108,-2.4233,-2.4235,-2.4237,0,0,0,0,0,0,-2.4011,-2.4018,-2.4074,-2.4046,-2.4053,-2.4054,-2.4072,-2.4071,-2.4081,-2.4084,-2.4084,-2.4075,-2.4089,-2.4094,-2.4132,-2.4157,-2.4107,-2.411,-2.4231,-2.4234,-2.4236,-2.4275,0,0,0,0,0,0,-2.4008,-2.4017,-2.4036,-2.4047,-2.4055,-2.4108,-2.4073,-2.4073,-2.4085,-2.4082,-2.4093,-2.4094,-2.4088,-2.4128,-2.4134,-2.416,-2.4112,-2.4228,-2.4232,-2.4235,-2.4272,-2.4279,-2.4285,0,0,0,0,0,-2.4006,-2.4046,-2.4038,-2.4045,-2.4079,-2.4109,-2.4114,-2.4107,-2.4088,-2.4107,-2.4109,-2.4093,-2.4154,-2.4132,-2.4139,-2.4166,-2.4227,-2.4231,-2.4235,-2.4269,-2.4277,-2.4285,0,0,0,0,0,0,-2.4037,-2.4047,-2.4038,-2.4083,-2.4096,-2.4104,-2.4128,-2.4117,-2.4135,-2.4131,-2.4122,-2.4125,-2.4164,-2.4169,-2.4145,-2.4215,-2.4187,-2.4193,-2.421,-2.4219,-2.4225,-2.4223,-2.4114,0,0,0,0,0,-2.405,-2.4074,-2.4081,-2.412,-2.4127,-2.4127,-2.414,-2.4134,-2.4147,-2.4152,-2.4157,-2.4169,-2.4191,-2.4205,-2.4225,-2.4273,-2.4274,-2.4295,-2.4301,-2.4307,-2.4312,-2.4337,-2.4346,-2.4251,-2.4251,-2.4251,0,0,-2.4075,-2.4083,-2.4099,-2.4127,-2.4136,-2.4161,-2.4131,-2.4159,-2.4178,-2.4156,-2.4191,-2.4196,-2.4209,-2.4252,-2.4271,-2.4257,-2.4339,-2.4312,-2.4317,-2.4318,-2.4342,-2.4351,-2.4359,-2.4254,-2.4253,-2.4253,0,0,-2.4134,-2.4143,-2.4177,-2.4187,-2.4201,-2.4201,-2.4209,-2.422,-2.4222,-2.4258,-2.4242,-2.4264,-2.4302,-2.4312,-2.4322,-2.4386,-2.4372,-2.4393,-2.4428,-2.4453,-2.446,-2.4467,-2.4489,-2.4497,-2.4398,-2.4398,-2.4398,0,-2.4163,-2.4201,-2.4195,-2.4224,-2.4237,-2.4219,-2.4252,-2.4262,-2.4283,-2.4292,-2.4276,-2.4323,-2.4331,-2.4376,-2.4392,-2.4401,-2.4409,-2.4391,-2.446,-2.4466,-2.4472,-2.4493,-2.4502,-2.44,-2.44,-2.44,-2.44,0,-2.4236,-2.4263,-2.4288,-2.4309,-2.4324,-2.4355,-2.4354,-2.437,-2.4363,-2.4365,-2.4402,-2.441,-2.4432,-2.4443,-2.4436,-2.4487,-2.4477,-2.4461,-2.4433,-2.4484,-2.4503,-2.4511,-2.4404,-2.4403,-2.4402,-2.4402,0,0,-2.4314,-2.4332,-2.4342,-2.4351,-2.4366,-2.4386,-2.4417,-2.4439,-2.4453,-2.4468,-2.4493,-2.4526,-2.4511,-2.4523,-2.4517,-2.4539,-2.4589,-2.452,-2.452,-2.4532,-2.4644,-2.4656,-2.4665,-2.458,-2.4582,-2.4583,-2.4643,0,-2.4373,-2.4426,-2.4422,-2.4472,-2.4497,-2.4481,-2.4508,-2.452,-2.4522,-2.4543,-2.4545,-2.4568,-2.4548,-2.4554,-2.4575,-2.4578,-2.4611,-2.4574,-2.4602,-2.4604,-2.4599,-2.4676,-2.4688,-2.4744,-2.4651,-2.4652,-2.4653,0,-2.4448,-2.4467,-2.4519,-2.4532,-2.4542,-2.4566,-2.4586,-2.4606,-2.4619,-2.462,-2.4633,-2.4624,-2.4655,-2.4627,-2.4669,-2.4644,-2.4655,-2.4659,-2.4661,-2.4662,-2.463,-2.4678,-2.4762,-2.477,-2.4665,-2.4664,-2.4663,0,-2.4499,-2.4537,-2.4573,-2.4582,-2.4597,-2.4615,-2.4622,-2.4634,-2.4647,-2.4665,-2.4674,-2.4694,-2.4706,-2.4722,-2.4719,-2.4699,-2.4761,-2.4733,-2.4761,-2.4761,-2.4774,-2.4773,-2.4859,-2.4783,-2.4783,-2.4783,-2.4783,0,-2.4564,-2.4597,-2.4596,-2.4619,-2.4655,-2.465,-2.4686,-2.4691,-2.4702,-2.4725,-2.4713,-2.4734,-2.473,-2.4751,-2.4749,-2.4783,-2.4789,-2.4789,-2.4788,-2.479,-2.4789,-2.4796,-2.4792,-2.4785,-2.4785,-2.4784,-2.4784,0,-2.4626,-2.4627,-2.4666,-2.4678,-2.4682,-2.4708,-2.4718,-2.4739,-2.4741,-2.477,-2.4776,-2.4779,-2.4803,-2.4802,-2.483,-2.4829,-2.4871,-2.4866,-2.4867,-2.4865,-2.4893,-2.489,-2.4986,-2.4998,-2.4915,-2.4916,-2.4917,0,-2.4667,-2.4692,-2.4707,-2.4722,-2.473,-2.4754,-2.4768,-2.4765,-2.478,-2.4798,-2.4817,-2.484,-2.4859,-2.4899,-2.4903,-2.4924,-2.4919,-2.4951,-2.4922,-2.4923,-2.4918,-2.4917,-2.4919,-2.4956,-2.4957,-2.4958,-2.4959,0,-2.474,-2.4739,-2.476,-2.4782,-2.48,-2.4816,-2.4832,-2.4844,-2.4842,-2.486,-2.4886,-2.49,-2.4929,-2.4952,-2.4973,-2.498,-2.4969,-2.4968,-2.4976,-2.4977,-2.4976,-2.4976,-2.4881,-2.4966,-2.4965,-2.4964,-2.4964,-2.4964,-2.4792,-2.4813,-2.4827,-2.4851,-2.4863,-2.4878,-2.4898,-2.4903,-2.4924,-2.4948,-2.4945,-2.4973,-2.4986,-2.5013,-2.5022,-2.5044,-2.5032,-2.5043,-2.5046,-2.5048,-2.5051,-2.4974,-2.5047,-2.5047,-2.5047,-2.5047,-2.5047,0,-2.4863,-2.4872,-2.4894,-2.4916,-2.4935,-2.4925,-2.4941,-2.4957,-2.4983,-2.4996,-2.5015,-2.5045,-2.5068,-2.5074,-2.5097,-2.5113,-2.5108,-2.5119,-2.5117,-2.5118,-2.5061,-2.5051,-2.5122,-2.5122,-2.5122,-2.5122,-2.5122,-2.5122,-2.4902,-2.4938,-2.4939,-2.4981,-2.4989,-2.5017,-2.5027,-2.5041,-2.5052,-2.5085,-2.5105,-2.5109,-2.512,-2.5143,-2.5164,-2.5165,-2.5173,-2.5185,-2.5185,-2.513,-2.5123,-2.5115,-2.5107,-2.5188,-2.5188,-2.5241,-2.5241,-2.5241]},{"header":{"parameterUnit":"m.s-1","parameterCategory":1,"la1":30.2991,"la2":30.254,"lo1":-89.0895,"lo2":-89.0444,"dy":0.0017,"dx":0.0017,"nx":28,"ny":28,"refTime":"2025-08-19T09:00:00:Z","depth":0,"parameterNumber":3,"parameterNumberName":"V-component_of_WINDS"},"data":[0,0,0,0,0,0,0,0,0,0,0,0,0,0,0,0,0,0,0,0,0,0,0,0,0,0,0,0,0,0,0,0,0,0,0,0,0,0,0,0,0,0,0,0,0,0,0,0,0,0,0,0,0,0,0,0,0,0,2.6845,2.6845,0,2.687,2.687,2.687,2.6859,2.6858,2.6858,2.6857,2.688,2.6882,2.6883,0,0,0,0,0,0,0,0,0,0,0,0,0,2.6785,2.6786,2.6845,2.6845,2.6846,2.687,2.687,2.687,2.6859,2.6858,2.6858,2.6857,2.688,2.6881,2.6883,0,0,0,0,0,0,0,0,0,0,0,0,0,2.681,2.6786,2.6845,2.6843,2.6843,2.687,2.687,2.687,2.6859,2.6858,2.6857,2.6857,2.688,2.6881,2.6883,2.6913,0,0,2.6889,2.6889,0,0,0,0,0,0,0,0,2.6809,2.6813,2.6843,2.6843,2.6843,2.686,2.6857,2.6884,2.6859,2.6853,2.6857,2.6856,2.6874,2.6877,2.6883,2.6914,2.6915,2.6889,2.689,2.6891,2.6891,0,0,0,0,0,0,0,2.6807,2.6811,2.6855,2.6843,2.6843,2.684,2.6842,2.6862,2.6868,2.6853,2.6853,2.6856,2.6874,2.6881,2.6884,2.6915,2.6889,2.689,2.6891,2.6892,2.697,2.6971,0,0,0,0,0,0,2.6806,2.681,2.6854,2.6855,2.6824,2.6842,2.6845,2.6856,2.6868,2.6869,2.6857,2.6855,2.6879,2.6882,2.6884,2.6919,2.6891,2.6892,2.6893,2.6969,2.697,2.6971,0,0,0,0,0,0,2.6805,2.681,2.6853,2.6833,2.6838,2.6844,2.6856,2.6857,2.6864,2.6871,2.6871,2.6863,2.6878,2.6882,2.6906,2.692,2.6893,2.6895,2.6967,2.6969,2.697,2.6989,0,0,0,0,0,0,2.6803,2.6809,2.6821,2.6833,2.6839,2.6874,2.6857,2.6858,2.6867,2.6866,2.6877,2.6878,2.6878,2.6903,2.6907,2.6922,2.6896,2.6966,2.6968,2.697,2.6987,2.6991,2.6994,0,0,0,0,0,2.6801,2.6825,2.6822,2.6827,2.6854,2.6875,2.6879,2.6879,2.6869,2.688,2.6884,2.6877,2.6917,2.6905,2.691,2.6925,2.6965,2.6968,2.697,2.6985,2.699,2.6994,0,0,0,0,0,0,2.6815,2.6827,2.6823,2.6853,2.6863,2.6873,2.6888,2.6884,2.6897,2.6895,2.6893,2.6896,2.692,2.6925,2.6912,2.6954,2.694,2.6943,2.695,2.6954,2.6958,2.6956,2.6898,0,0,0,0,0,2.6821,2.6839,2.6848,2.6873,2.6878,2.6882,2.6891,2.6891,2.6901,2.6905,2.6911,2.6921,2.6936,2.6945,2.6959,2.6988,2.6989,2.7,2.7004,2.7006,2.7009,2.7023,2.7028,2.6978,2.6978,2.6978,0,0,2.6835,2.6844,2.6854,2.6876,2.6884,2.69,2.6886,2.6904,2.6916,2.6908,2.693,2.6935,2.6946,2.6972,2.6983,2.6977,2.7023,2.7009,2.7012,2.7013,2.7026,2.7031,2.7035,2.698,2.6979,2.6979,0,0,2.6868,2.6877,2.6898,2.6907,2.6919,2.6921,2.6926,2.6937,2.694,2.6963,2.6957,2.6971,2.6996,2.7004,2.7011,2.7046,2.704,2.7051,2.7069,2.7083,2.7087,2.709,2.7102,2.7106,2.7054,2.7054,2.7054,0,2.6883,2.6909,2.6909,2.6928,2.6937,2.6931,2.6951,2.6959,2.6975,2.6981,2.6973,2.7005,2.7012,2.7039,2.7047,2.7054,2.7058,2.7049,2.7086,2.709,2.7093,2.7104,2.7108,2.7055,2.7055,2.7054,2.7054,0,2.6927,2.6944,2.696,2.6976,2.6987,2.7006,2.7009,2.7019,2.7017,2.702,2.7043,2.7051,2.7066,2.7072,2.707,2.7099,2.7094,2.7086,2.7072,2.7099,2.7109,2.7113,2.7056,2.7056,2.7056,2.7055,0,0,2.697,2.6985,2.6991,2.6998,2.7011,2.7024,2.7043,2.7058,2.7066,2.7078,2.7093,2.7114,2.7107,2.7115,2.7114,2.7126,2.7152,2.7117,2.7117,2.7122,2.7183,2.7188,2.7193,2.7149,2.7149,2.715,2.7182,0,2.7003,2.7037,2.7037,2.7068,2.7084,2.7077,2.7093,2.7103,2.7106,2.7119,2.7122,2.7137,2.7126,2.7131,2.7143,2.7147,2.7164,2.7144,2.7162,2.7162,2.7158,2.7199,2.7204,2.7234,2.7186,2.7187,2.7187,0,2.7047,2.706,2.7092,2.7102,2.7108,2.7123,2.7136,2.7149,2.7159,2.716,2.7169,2.7166,2.7184,2.717,2.7194,2.718,2.7187,2.719,2.7191,2.7192,2.7176,2.72,2.7243,2.7247,2.7194,2.7193,2.7193,0,2.7074,2.7099,2.7122,2.7128,2.714,2.715,2.7155,2.7164,2.7173,2.7184,2.719,2.7203,2.721,2.722,2.722,2.721,2.7244,2.723,2.7245,2.7245,2.7252,2.7251,2.7296,2.7258,2.7258,2.7258,2.7258,0,2.7111,2.7131,2.7134,2.7148,2.7169,2.7169,2.719,2.7194,2.7202,2.7215,2.7211,2.7223,2.7223,2.7236,2.7236,2.7255,2.7259,2.7259,2.7259,2.7259,2.7259,2.7263,2.7261,2.7259,2.7259,2.7258,2.7258,0,2.7145,2.7148,2.7172,2.7181,2.7184,2.7199,2.7207,2.7219,2.7221,2.7239,2.7243,2.7246,2.7261,2.7262,2.7279,2.7279,2.7302,2.73,2.7299,2.7298,2.7313,2.7311,2.7361,2.7367,2.7326,2.7326,2.7326,0,2.7168,2.7183,2.7194,2.7203,2.7209,2.7224,2.7233,2.7233,2.7242,2.7253,2.7264,2.7278,2.729,2.7313,2.7317,2.7329,2.7327,2.7343,2.7328,2.7328,2.7326,2.7325,2.7326,2.7346,2.7347,2.7347,2.7347,0,2.7209,2.7209,2.7223,2.7236,2.7247,2.7257,2.7267,2.7275,2.7276,2.7286,2.7301,2.731,2.7327,2.734,2.7352,2.7357,2.7352,2.7352,2.7356,2.7356,2.7355,2.7355,2.7306,2.7351,2.735,2.735,2.735,2.735,2.7238,2.725,2.726,2.7274,2.7282,2.7291,2.7302,2.7306,2.7319,2.7333,2.7332,2.7348,2.7356,2.7372,2.7378,2.739,2.7384,2.739,2.7391,2.7393,2.7394,2.7353,2.7392,2.7392,2.7392,2.7392,2.7392,0,2.7277,2.7283,2.7296,2.731,2.7321,2.7316,2.7326,2.7336,2.735,2.7358,2.7369,2.7386,2.7399,2.7404,2.7416,2.7425,2.7423,2.7428,2.7427,2.7428,2.7399,2.7393,2.7429,2.7429,2.7429,2.7429,2.7429,2.7429,2.7299,2.732,2.7321,2.7345,2.735,2.7366,2.7373,2.738,2.7387,2.7406,2.7417,2.742,2.7426,2.7439,2.745,2.7451,2.7455,2.7462,2.7461,2.7434,2.743,2.7426,2.7422,2.7463,2.7463,2.749,2.749,2.749]}]]